TimeCST,TemperatureF,Dew PointF,Humidity,Sea Level PressureIn,VisibilityMPH,Wind Direction,Wind SpeedMPH,Gust SpeedMPH,PrecipitationIn,Events,Conditions,WindDirDegrees,DateUTC
12:55 AM,50.2,44.8,82,30.03,10.0,NW,13.8,18.4,N/A,,Overcast,320,2011-11-20 06:55:00
1:55 AM,45.7,41.9,87,30.04,10.0,North,11.5,-,N/A,,Overcast,360,2011-11-20 07:55:00
2:03 AM,44.6,41.0,87,30.05,10.0,NNW,11.5,-,N/A,Rain,Light Rain,340,2011-11-20 08:03:00
2:08 AM,44.6,42.8,93,30.06,7.0,NNW,10.4,-,N/A,Rain,Rain,340,2011-11-20 08:08:00
2:23 AM,42.8,42.8,100,30.06,5.0,NNW,11.5,-,N/A,Rain,Light Rain,330,2011-11-20 08:23:00
2:24 AM,42.8,42.8,100,30.06,6.0,NNW,11.5,-,N/A,Rain,Light Rain,340,2011-11-20 08:24:00
2:30 AM,42.8,42.8,100,30.05,7.0,North,9.2,-,N/A,Rain,Light Rain,350,2011-11-20 08:30:00
2:54 AM,42.8,42.8,100,30.06,6.0,NNW,6.9,-,N/A,,Overcast,340,2011-11-20 08:54:00
2:55 AM,42.3,42.1,99,30.05,6.0,North,6.9,-,0.04,,Overcast,350,2011-11-20 08:55:00
3:00 AM,42.8,41.0,93,30.06,6.0,NNW,5.8,-,N/A,,Overcast,340,2011-11-20 09:00:00
3:03 AM,42.8,41.0,93,30.06,6.0,North,5.8,-,N/A,,Light Drizzle,360,2011-11-20 09:03:00
3:06 AM,42.8,41.0,93,30.06,6.0,North,8.1,-,N/A,,Light Drizzle,350,2011-11-20 09:06:00
3:09 AM,42.8,41.0,93,30.05,6.0,NNE,4.6,-,N/A,,Light Drizzle,20,2011-11-20 09:09:00
3:14 AM,42.8,41.0,93,30.05,6.0,NE,5.8,-,N/A,,Overcast,40,2011-11-20 09:14:00
3:19 AM,42.8,41.0,93,30.06,6.0,North,5.8,-,N/A,,Overcast,360,2011-11-20 09:19:00
3:21 AM,42.8,42.8,100,30.06,6.0,North,5.8,-,N/A,,Overcast,350,2011-11-20 09:21:00
3:23 AM,42.8,42.8,100,30.06,5.0,North,5.8,-,N/A,,Light Drizzle,350,2011-11-20 09:23:00
3:47 AM,41.0,41.0,100,30.05,2.5,ENE,6.9,-,N/A,Rain,Light Rain,60,2011-11-20 09:47:00
3:53 AM,41.0,41.0,100,30.07,3.0,North,8.1,-,N/A,Rain,Rain,360,2011-11-20 09:53:00
3:55 AM,41.7,41.5,99,30.08,3.0,NNW,4.6,-,0.05,Rain,Rain,340,2011-11-20 09:55:00
4:13 AM,41.0,41.0,100,30.08,5.0,North,4.6,-,N/A,Rain,Light Rain,360,2011-11-20 10:13:00
4:28 AM,41.0,41.0,100,30.09,2.5,Variable,3.5,-,N/A,Rain,Light Rain,0,2011-11-20 10:28:00
4:38 AM,41.0,41.0,100,30.09,2.0,North,8.1,-,N/A,Rain,Rain,360,2011-11-20 10:38:00
4:40 AM,41.0,41.0,100,30.09,3.0,North,5.8,-,N/A,Rain,Light Rain,10,2011-11-20 10:40:00
4:51 AM,41.0,41.0,100,30.10,4.0,NW,5.8,-,N/A,Rain,Light Rain,310,2011-11-20 10:51:00
4:55 AM,41.2,41.0,99,30.09,4.0,NNW,9.2,-,0.13,Rain,Light Rain,340,2011-11-20 10:55:00
5:32 AM,39.2,39.2,100,30.11,6.0,North,5.8,-,N/A,Rain,Light Rain,350,2011-11-20 11:32:00
5:37 AM,39.2,39.2,100,30.12,7.0,North,5.8,-,N/A,Rain,Light Rain,360,2011-11-20 11:37:00
5:40 AM,39.2,39.2,100,30.11,9.0,North,8.1,-,N/A,Rain,Light Rain,10,2011-11-20 11:40:00
5:45 AM,39.2,39.2,100,30.12,10.0,North,8.1,-,N/A,,Overcast,360,2011-11-20 11:45:00
5:49 AM,39.2,39.2,100,30.11,10.0,North,9.2,-,N/A,,Overcast,10,2011-11-20 11:49:00
5:55 AM,39.6,39.4,99,30.11,9.0,North,9.2,-,0.04,,Overcast,10,2011-11-20 11:55:00
6:02 AM,39.2,39.2,100,30.12,9.0,North,8.1,-,N/A,,Overcast,360,2011-11-20 12:02:00
6:34 AM,39.2,39.2,100,30.12,8.0,NNE,9.2,-,N/A,,Overcast,20,2011-11-20 12:34:00
6:45 AM,39.2,39.2,100,30.12,8.0,North,9.2,-,N/A,,Overcast,360,2011-11-20 12:45:00
6:55 AM,38.7,38.5,99,30.13,8.0,North,6.9,-,N/A,,Overcast,10,2011-11-20 12:55:00
7:27 AM,39.2,37.4,93,30.13,2.5,NNE,9.2,-,N/A,,Overcast,30,2011-11-20 13:27:00
7:33 AM,39.2,37.4,93,30.13,3.0,NNE,8.1,-,N/A,,Overcast,30,2011-11-20 13:33:00
7:36 AM,37.4,37.4,100,30.14,2.5,NE,9.2,-,N/A,,Overcast,40,2011-11-20 13:36:00
7:40 AM,37.4,37.4,100,30.14,3.0,NNE,9.2,-,N/A,,Overcast,30,2011-11-20 13:40:00
7:41 AM,37.4,37.4,100,30.14,2.5,NNE,9.2,-,N/A,,Overcast,30,2011-11-20 13:41:00
7:52 AM,37.4,37.4,100,30.15,3.0,NNE,8.1,-,N/A,,Overcast,20,2011-11-20 13:52:00
7:55 AM,37.9,37.6,99,30.15,3.0,NNE,6.9,-,N/A,,Overcast,30,2011-11-20 13:55:00
8:45 AM,37.4,37.4,100,30.18,5.0,NNW,8.1,-,N/A,,Overcast,340,2011-11-20 14:45:00
8:55 AM,37.6,37.4,99,30.17,4.0,North,10.4,-,0.01,Rain,Heavy Rain,10,2011-11-20 14:55:00
9:25 AM,37.4,37.4,100,30.16,2.5,NE,9.2,-,N/A,Rain,Light Rain,50,2011-11-20 15:25:00
9:27 AM,37.4,37.4,100,30.16,1.5,NE,9.2,-,N/A,Rain,Rain,40,2011-11-20 15:27:00
9:28 AM,37.4,37.4,100,30.16,1.2,NE,9.2,-,N/A,Rain,Rain,40,2011-11-20 15:28:00
9:35 AM,37.4,37.4,100,30.17,1.5,NNE,6.9,-,N/A,Rain,Rain,20,2011-11-20 15:35:00
9:37 AM,37.4,37.4,100,30.17,2.0,NE,10.4,-,N/A,Rain,Rain,40,2011-11-20 15:37:00
9:40 AM,37.4,35.6,93,30.17,3.0,NNE,6.9,-,N/A,Rain,Light Rain,30,2011-11-20 15:40:00
9:42 AM,37.4,35.6,93,30.18,3.0,North,8.1,-,N/A,Rain,Light Rain,10,2011-11-20 15:42:00
9:55 AM,36.5,36.3,99,30.17,5.0,NE,6.9,-,0.10,Rain,Light Rain,40,2011-11-20 15:55:00
10:01 AM,37.4,35.6,93,30.18,7.0,NE,8.1,-,N/A,,Overcast,40,2011-11-20 16:01:00
10:16 AM,35.6,35.6,100,30.18,5.0,NNE,8.1,-,N/A,,Overcast,30,2011-11-20 16:16:00
10:18 AM,35.6,35.6,100,30.19,5.0,North,6.9,-,N/A,Rain,Light Rain,10,2011-11-20 16:18:00
10:35 AM,35.6,35.6,100,30.17,7.0,NNE,9.2,-,N/A,,Light Drizzle,30,2011-11-20 16:35:00
10:48 AM,35.6,35.6,100,30.18,2.5,North,5.8,-,N/A,Rain,Light Rain,360,2011-11-20 16:48:00
10:51 AM,35.6,35.6,100,30.18,1.8,North,8.1,-,N/A,Rain,Light Rain,360,2011-11-20 16:51:00
10:55 AM,36.1,36.0,99,30.19,1.8,NNW,5.8,-,0.06,Rain,Light Rain,330,2011-11-20 16:55:00
10:57 AM,35.6,35.6,100,30.19,2.0,NNW,5.8,-,N/A,Rain,Light Rain,340,2011-11-20 16:57:00
10:58 AM,35.6,35.6,100,30.19,3.0,North,5.8,-,N/A,Rain,Light Rain,350,2011-11-20 16:58:00
11:20 AM,35.6,35.6,100,30.18,8.0,NNE,5.8,-,N/A,,Light Drizzle,30,2011-11-20 17:20:00
11:21 AM,35.6,35.6,100,30.17,8.0,NNE,5.8,-,N/A,,Light Drizzle,30,2011-11-20 17:21:00
11:27 AM,37.4,35.6,93,30.17,9.0,NNE,5.8,-,N/A,,Overcast,20,2011-11-20 17:27:00
11:54 AM,37.4,35.6,93,30.17,4.0,NNE,6.9,-,N/A,,Light Drizzle,30,2011-11-20 17:54:00
11:55 AM,36.5,36.3,99,30.17,4.0,NNE,6.9,-,0.02,,Light Drizzle,20,2011-11-20 17:55:00
11:57 AM,37.4,35.6,93,30.17,4.0,NE,6.9,-,N/A,,Overcast,40,2011-11-20 17:57:00
12:53 PM,37.4,37.4,100,30.15,5.0,ENE,8.1,-,N/A,,Overcast,60,2011-11-20 18:53:00
12:55 PM,37.2,36.9,99,30.15,4.0,ENE,8.1,-,0.00,,Overcast,60,2011-11-20 18:55:00
12:58 PM,37.4,37.4,100,30.16,4.0,NE,5.8,-,N/A,,Overcast,50,2011-11-20 18:58:00
1:54 PM,37.4,37.4,100,30.15,6.0,ENE,6.9,-,N/A,,Overcast,60,2011-11-20 19:54:00
1:55 PM,37.8,37.4,99,30.16,6.0,NE,6.9,-,N/A,,Overcast,50,2011-11-20 19:55:00
2:05 PM,37.4,37.4,100,30.16,7.0,NNE,5.8,-,N/A,,Overcast,20,2011-11-20 20:05:00
2:34 PM,37.4,37.4,100,30.16,4.0,North,8.1,-,N/A,,Overcast,360,2011-11-20 20:34:00
2:40 PM,37.4,37.4,100,30.16,2.5,Variable,4.6,-,N/A,,Overcast,0,2011-11-20 20:40:00
2:55 PM,37.6,37.2,99,30.16,2.5,NE,8.1,-,N/A,,Overcast,40,2011-11-20 20:55:00
3:25 PM,37.4,37.4,100,30.16,1.8,NE,9.2,-,N/A,,Overcast,50,2011-11-20 21:25:00
3:29 PM,37.4,37.4,100,30.16,1.5,NE,5.8,-,N/A,,Overcast,40,2011-11-20 21:29:00
3:32 PM,37.4,37.4,100,30.16,1.8,NE,5.8,-,N/A,,Overcast,40,2011-11-20 21:32:00
3:35 PM,37.4,37.4,100,30.16,1.5,NE,6.9,-,N/A,,Overcast,40,2011-11-20 21:35:00
3:43 PM,37.4,37.4,100,30.16,1.2,NE,5.8,-,N/A,,Overcast,40,2011-11-20 21:43:00
3:51 PM,37.4,37.4,100,30.16,1.0,NE,8.1,-,N/A,,Mist,40,2011-11-20 21:51:00
3:55 PM,37.0,36.7,99,30.16,1.0,NE,8.1,-,N/A,,Mist,50,2011-11-20 21:55:00
4:00 PM,37.4,37.4,100,30.16,1.2,NE,6.9,-,N/A,,Overcast,40,2011-11-20 22:00:00
4:03 PM,37.4,37.4,100,30.17,1.0,Variable,6.9,-,N/A,,Mist,0,2011-11-20 22:03:00
4:08 PM,37.4,37.4,100,30.16,0.8,ENE,8.1,-,N/A,,Mist,70,2011-11-20 22:08:00
4:11 PM,37.4,37.4,100,30.16,0.8,ENE,9.2,-,N/A,,Mist,70,2011-11-20 22:11:00
4:12 PM,37.4,37.4,100,30.16,0.8,ENE,9.2,-,N/A,,Mist,70,2011-11-20 22:12:00
4:17 PM,37.4,37.4,100,30.16,0.8,ENE,6.9,-,N/A,,Mist,60,2011-11-20 22:17:00
4:33 PM,37.4,37.4,100,30.18,0.8,NNE,5.8,-,N/A,,Mist,30,2011-11-20 22:33:00
4:40 PM,37.4,35.6,93,30.18,1.0,NNE,6.9,-,N/A,,Mist,30,2011-11-20 22:40:00
4:41 PM,37.4,35.6,93,30.18,1.0,NNE,6.9,-,N/A,,Mist,30,2011-11-20 22:41:00
4:44 PM,37.4,35.6,93,30.18,1.2,NE,6.9,-,N/A,,Overcast,40,2011-11-20 22:44:00
4:55 PM,36.9,36.5,99,30.18,1.2,NNE,6.9,-,N/A,,Overcast,30,2011-11-20 22:55:00
4:57 PM,37.4,37.4,100,30.18,1.5,NE,5.8,-,N/A,,Overcast,40,2011-11-20 22:57:00
5:02 PM,37.4,35.6,93,30.19,1.8,NNE,6.9,-,N/A,,Overcast,20,2011-11-20 23:02:00
5:09 PM,37.4,35.6,93,30.19,1.5,NE,6.9,-,N/A,,Overcast,40,2011-11-20 23:09:00
5:22 PM,37.4,37.4,100,30.19,1.5,North,8.1,-,N/A,,Light Drizzle,10,2011-11-20 23:22:00
5:29 PM,37.4,37.4,100,30.19,1.2,NNE,5.8,-,N/A,,Light Drizzle,20,2011-11-20 23:29:00
5:40 PM,37.4,35.6,93,30.20,1.5,NNE,5.8,-,N/A,,Light Drizzle,20,2011-11-20 23:40:00
5:42 PM,37.4,35.6,93,30.19,1.5,NNE,4.6,-,N/A,,Light Drizzle,20,2011-11-20 23:42:00
5:52 PM,37.4,35.6,93,30.19,1.2,NE,6.9,-,N/A,,Light Drizzle,40,2011-11-20 23:52:00
5:53 PM,37.4,35.6,93,30.19,1.5,NE,5.8,-,N/A,,Light Drizzle,40,2011-11-20 23:53:00
5:55 PM,36.5,36.3,99,30.19,1.5,NNE,5.8,-,0.00,,Light Drizzle,30,2011-11-20 23:55:00
5:56 PM,37.4,35.6,93,30.19,1.5,NE,6.9,-,N/A,,Overcast,40,2011-11-20 23:56:00
5:58 PM,37.4,35.6,93,30.19,1.8,NE,8.1,-,N/A,,Overcast,40,2011-11-20 23:58:00
6:05 PM,37.4,35.6,93,30.20,2.0,NE,4.6,-,N/A,,Overcast,50,2011-11-21 00:05:00
6:06 PM,37.4,35.6,93,30.20,1.8,ENE,4.6,-,N/A,,Overcast,60,2011-11-21 00:06:00
6:16 PM,37.4,35.6,93,30.20,1.8,NE,5.8,-,N/A,,Overcast,40,2011-11-21 00:16:00
6:26 PM,37.4,35.6,93,30.22,2.0,NNE,4.6,-,N/A,,Overcast,30,2011-11-21 00:26:00
6:40 PM,37.4,35.6,93,30.22,2.0,North,6.9,-,N/A,,Overcast,360,2011-11-21 00:40:00
6:44 PM,37.4,35.6,93,30.22,2.0,NNE,6.9,-,N/A,,Light Drizzle,20,2011-11-21 00:44:00
6:49 PM,37.4,35.6,93,30.21,1.8,NE,5.8,-,N/A,,Light Drizzle,40,2011-11-21 00:49:00
6:51 PM,37.4,35.6,93,30.21,1.8,NNE,6.9,-,N/A,,Light Drizzle,30,2011-11-21 00:51:00
6:53 PM,37.4,35.6,93,30.21,1.8,NNE,5.8,-,N/A,,Light Drizzle,30,2011-11-21 00:53:00
6:55 PM,36.5,36.3,99,30.21,1.8,NNE,5.8,-,0.00,,Light Drizzle,30,2011-11-21 00:55:00
7:01 PM,37.4,35.6,93,30.21,2.0,NE,6.9,-,N/A,,Light Drizzle,40,2011-11-21 01:01:00
7:07 PM,37.4,35.6,93,30.21,2.5,NE,5.8,-,N/A,,Light Drizzle,40,2011-11-21 01:07:00
7:12 PM,37.4,35.6,93,30.22,3.0,NNE,5.8,-,N/A,,Light Drizzle,20,2011-11-21 01:12:00
7:15 PM,37.4,35.6,93,30.22,3.0,NE,5.8,-,N/A,,Overcast,40,2011-11-21 01:15:00
7:26 PM,37.4,35.6,93,30.22,3.0,NNE,4.6,-,N/A,,Overcast,30,2011-11-21 01:26:00
7:55 PM,36.7,36.3,99,30.21,3.0,NNE,6.9,-,0.00,,Overcast,30,2011-11-21 01:55:00
8:38 PM,37.4,35.6,93,30.21,2.5,ENE,3.5,-,N/A,,Overcast,60,2011-11-21 02:38:00
8:55 PM,36.7,36.5,99,30.20,2.5,NE,5.8,-,N/A,,Overcast,40,2011-11-21 02:55:00
8:56 PM,37.4,35.6,93,30.20,3.0,NE,5.8,-,N/A,,Overcast,40,2011-11-21 02:56:00
9:01 PM,37.4,35.6,93,30.20,3.0,NE,4.6,-,N/A,,Overcast,40,2011-11-21 03:01:00
9:28 PM,37.4,37.4,100,30.19,2.5,Calm,Calm,-,N/A,,Overcast,0,2011-11-21 03:28:00
9:30 PM,37.4,37.4,100,30.19,3.0,Calm,Calm,-,N/A,,Overcast,0,2011-11-21 03:30:00
9:43 PM,37.4,37.4,100,30.22,3.0,Calm,Calm,-,N/A,,Overcast,0,2011-11-21 03:43:00
9:55 PM,37.0,36.9,99,30.23,3.0,Calm,Calm,-,N/A,,Overcast,0,2011-11-21 03:55:00
9:57 PM,37.4,37.4,100,30.23,3.0,Calm,Calm,-,N/A,,Overcast,0,2011-11-21 03:57:00
10:01 PM,37.4,37.4,100,30.22,2.5,Calm,Calm,-,N/A,,Overcast,0,2011-11-21 04:01:00
10:16 PM,37.4,37.4,100,30.20,1.8,North,5.8,-,N/A,,Overcast,10,2011-11-21 04:16:00
10:19 PM,37.4,37.4,100,30.19,1.5,North,5.8,-,N/A,,Overcast,360,2011-11-21 04:19:00
10:23 PM,37.4,37.4,100,30.18,1.2,North,5.8,-,N/A,,Overcast,10,2011-11-21 04:23:00
10:33 PM,37.4,37.4,100,30.18,1.5,North,3.5,-,N/A,,Overcast,10,2011-11-21 04:33:00
10:38 PM,37.4,37.4,100,30.18,1.8,Calm,Calm,-,N/A,,Overcast,0,2011-11-21 04:38:00
10:48 PM,37.4,37.4,100,30.18,1.5,NE,3.5,-,N/A,,Overcast,50,2011-11-21 04:48:00
10:55 PM,37.0,36.7,99,30.18,1.5,Calm,Calm,-,N/A,,Overcast,0,2011-11-21 04:55:00
11:08 PM,37.4,37.4,100,30.17,1.2,East,3.5,-,N/A,,Overcast,100,2011-11-21 05:08:00
11:24 PM,37.4,37.4,100,30.20,1.5,Calm,Calm,-,N/A,,Overcast,0,2011-11-21 05:24:00
11:28 PM,37.4,37.4,100,30.19,1.8,Calm,Calm,-,N/A,,Overcast,0,2011-11-21 05:28:00
11:35 PM,37.4,37.4,100,30.20,2.0,Calm,Calm,-,N/A,,Overcast,0,2011-11-21 05:35:00
11:53 PM,37.4,37.4,100,30.19,1.8,North,3.5,-,N/A,,Overcast,360,2011-11-21 05:53:00
11:55 PM,37.4,37.4,100,30.19,1.8,North,4.6,-,N/A,,Overcast,10,2011-11-21 05:55:00
11:58 PM,37.4,37.4,100,30.19,1.5,North,4.6,-,N/A,,Overcast,360,2011-11-21 05:58:00